Date String (YYYY-MM-DD hh:mm:ss) UTC,Instrument flags,Ambient pressure (hPa),Sample flow (lpm),Bypass flow (lpm),Sample temperature (°C),Ambient temperature (°C),ASC tube jacket temperature (°C),LED temperature (°C),Box temperature (°C),Sample RH (%),Span deviation,Mass concentration (μg/m³),Mass concentration (μg/m³),Mass concentration (μg/m³)
DateTimeUTC,F1_M11,P_M11,Q1_M11,Q2_M11,T1_M11,T2_M11,T3_M11,T4_M11,T5_M11,U1_M11,ZSPAN_M11,X2_M11,X0_M11,X1_M11
2022-07-02 19:00:00,,0829.2,5.00,0.00,29.1,26.9,00.0,37.8,30.9,25.9,0000.0,0004.28,0008.45,0003.53
2022-07-02 19:01:00,,0829.2,5.00,0.00,29.1,27.0,00.0,37.8,30.9,26.4,0000.0,0004.37,0008.65,0003.56
2022-07-02 19:02:00,,0829.1,5.01,0.00,29.1,27.2,00.0,37.8,31.0,26.5,0000.0,0004.40,0008.75,0003.59
2022-07-02 19:03:00,,0828.8,5.00,0.00,29.1,27.4,00.0,37.8,31.0,25.8,0000.0,0004.43,0009.15,0003.61
2022-07-02 19:04:00,,0828.8,5.00,0.00,29.1,27.6,00.0,37.8,31.1,25.5,0000.0,0004.37,0009.06,0003.60
2022-07-02 19:05:00,,0829.0,4.99,0.00,29.1,27.8,00.0,37.8,31.1,24.3,0000.0,0004.37,0009.86,0003.57
2022-07-02 19:06:00,,0828.9,5.00,0.00,29.1,27.9,00.0,37.8,31.2,22.6,0000.0,0004.32,0009.88,0003.53
2022-07-02 19:07:00,,0829.0,5.01,0.00,29.2,28.1,00.0,37.9,31.2,21.7,0000.0,0004.26,0009.84,0003.48
2022-07-02 19:08:00,,0829.0,5.00,0.00,29.2,28.2,00.0,37.9,31.3,23.3,0000.0,0004.22,0009.83,0003.44
2022-07-02 19:09:00,,0829.0,5.00,0.00,29.3,28.1,00.0,37.9,31.3,24.4,0000.0,0004.24,0010.38,0003.44
2022-07-02 19:10:00,,0829.0,5.00,0.00,29.2,27.4,00.0,37.8,31.1,23.3,0000.0,0004.26,0010.46,0003.43
2022-07-02 19:11:00,,0828.9,4.99,0.00,29.2,27.0,00.0,37.8,31.0,24.7,0000.0,0004.24,0010.38,0003.42
2022-07-02 19:12:00,,0829.1,5.00,0.00,29.1,27.0,00.0,37.8,31.0,24.4,0000.0,0004.20,0010.11,0003.41
2022-07-02 19:13:00,,0829.1,5.00,0.00,29.1,27.1,00.0,37.8,30.9,24.6,0000.0,0004.18,0010.00,0003.40
2022-07-02 19:14:00,,0828.7,4.99,0.00,29.1,27.2,00.0,37.8,31.0,24.9,0000.0,0004.19,0009.70,0003.39
2022-07-02 19:15:00,,0828.9,5.01,0.00,29.1,27.4,00.0,37.8,31.0,24.8,0000.0,0004.23,0009.78,0003.39
2022-07-02 19:16:00,,0829.0,5.01,0.00,29.1,27.6,00.0,37.8,31.0,24.0,0000.0,0004.24,0009.02,0003.40
2022-07-02 19:17:00,,0829.1,5.00,0.00,29.1,27.8,00.0,37.8,31.1,23.7,0000.0,0004.26,0008.99,0003.41
2022-07-02 19:18:00,,0828.9,4.99,0.00,29.2,28.0,00.0,37.8,31.2,23.7,0000.0,0004.33,0009.21,0003.45
2022-07-02 19:19:00,,0829.0,4.98,0.00,29.2,28.1,00.0,37.9,31.2,23.7,0000.0,0004.41,0009.38,0003.50
2022-07-02 19:20:00,,0829.0,4.99,0.00,29.2,28.2,00.0,37.9,31.3,23.7,0000.0,0004.43,0009.10,0003.50
2022-07-02 19:21:00,,0828.6,5.00,0.00,29.3,27.8,00.0,37.9,31.2,23.8,0000.0,0004.42,0008.99,0003.50
2022-07-02 19:22:00,,0828.5,4.99,0.00,29.2,27.1,00.0,37.8,31.1,24.3,0000.0,0004.39,0009.15,0003.51
2022-07-02 19:23:00,,0828.5,5.01,0.00,29.2,26.9,00.0,37.8,31.0,25.0,0000.0,0004.40,0009.83,0003.51
2022-07-02 19:24:00,,0828.5,5.01,0.00,29.1,26.9,00.0,37.8,30.9,25.5,0000.0,0004.41,0010.11,0003.53
2022-07-02 19:25:00,,0828.5,5.01,0.00,29.1,27.1,00.0,37.8,30.9,25.4,0000.0,0004.37,0009.99,0003.55
2022-07-02 19:26:00,,0828.5,4.99,0.00,29.1,27.3,00.0,37.8,30.9,25.1,0000.0,0004.38,0009.81,0003.57
2022-07-02 19:27:00,,0828.4,4.99,0.00,29.1,27.5,00.0,37.8,31.0,25.0,0000.0,0004.42,0009.93,0003.58
2022-07-02 19:28:00,,0828.4,5.00,0.00,29.1,27.6,00.0,37.8,31.1,24.2,0000.0,0004.45,0010.73,0003.61
2022-07-02 19:29:00,,0828.4,5.00,0.00,29.1,27.8,00.0,37.8,31.1,23.9,0000.0,0004.43,0010.51,0003.61
2022-07-02 19:30:00,,0828.4,5.00,0.00,29.2,28.0,00.0,37.8,31.2,23.4,0000.0,0004.39,0010.38,0003.59
2022-07-02 19:31:00,,0828.4,5.00,0.00,29.2,28.1,00.0,37.9,31.2,22.8,0000.0,0004.36,0010.21,0003.59
2022-07-02 19:32:00,,0828.5,5.00,0.00,29.2,28.3,00.0,37.9,31.3,22.4,0000.0,0004.38,0010.31,0003.58
2022-07-02 19:33:00,,0828.4,5.00,0.00,29.3,28.1,00.0,37.9,31.3,22.5,0000.0,0004.39,0010.08,0003.57
2022-07-02 19:34:00,,0828.4,5.00,0.00,29.2,27.3,00.0,37.8,31.1,22.5,0000.0,0004.37,0009.41,0003.55
2022-07-02 19:35:00,,0828.4,5.00,0.00,29.2,27.0,00.0,37.8,31.0,22.3,0000.0,0004.34,0009.16,0003.50
2022-07-02 19:36:00,,0828.4,5.00,0.00,29.1,27.0,00.0,37.8,31.0,22.4,0000.0,0004.32,0009.25,0003.47
2022-07-02 19:37:00,,0828.3,4.99,0.00,29.1,27.1,00.0,37.8,30.9,22.7,0000.0,0004.30,0009.88,0003.45
2022-07-02 19:38:00,,0828.4,4.99,0.00,29.1,27.2,00.0,37.8,31.0,23.2,0000.0,0004.28,0010.36,0003.44
2022-07-02 19:39:00,,0828.4,5.01,0.00,29.1,27.4,00.0,37.8,31.0,23.1,0000.0,0004.23,0009.51,0003.43
2022-07-02 19:40:00,,0828.3,4.99,0.00,29.1,27.6,00.0,37.8,31.1,23.1,0000.0,0004.21,0009.72,0003.43
2022-07-02 19:41:00,,0828.4,5.00,0.00,29.1,27.8,00.0,37.9,31.1,22.8,0000.0,0004.21,0010.83,0003.43
2022-07-02 19:42:00,,0828.4,5.00,0.00,29.2,28.0,00.0,37.9,31.2,22.8,0000.0,0004.20,0011.10,0003.43
2022-07-02 19:43:00,,0828.3,5.00,0.00,29.2,28.1,00.0,37.9,31.2,23.0,0000.0,0004.23,0011.17,0003.43
2022-07-02 19:44:00,,0828.3,5.00,0.00,29.3,28.1,00.0,37.9,31.3,23.2,0000.0,0004.25,0011.34,0003.44
2022-07-02 19:45:00,,0828.3,5.00,0.00,29.2,27.4,00.0,37.8,31.1,23.1,0000.0,0004.24,0011.29,0003.44
2022-07-02 19:46:00,,0828.3,4.99,0.00,29.2,26.9,00.0,37.8,31.0,23.3,0000.0,0004.27,0011.32,0003.46
2022-07-02 19:47:00,,0828.3,5.01,0.00,29.1,26.9,00.0,37.8,31.0,23.4,0000.0,0004.31,0011.57,0003.48
2022-07-02 19:48:00,,0828.3,5.00,0.00,29.1,27.0,00.0,37.8,30.9,23.7,0000.0,0004.33,0012.34,0003.48
2022-07-02 19:49:00,,0828.3,4.98,0.00,29.1,27.2,00.0,37.8,30.9,23.3,0000.0,0004.30,0011.23,0003.47
2022-07-02 19:50:00,,0828.2,5.01,0.00,29.1,27.4,00.0,37.8,31.0,22.8,0000.0,0004.29,0011.20,0003.46
2022-07-02 19:51:00,,0828.2,5.00,0.00,29.1,27.6,00.0,37.8,31.0,23.1,0000.0,0004.27,0011.45,0003.44
2022-07-02 19:52:00,,0828.3,5.00,0.00,29.1,27.8,00.0,37.8,31.1,23.5,0000.0,0004.30,0011.10,0003.44
2022-07-02 19:53:00,,0828.3,5.00,0.00,29.2,27.9,00.0,37.9,31.2,23.2,0000.0,0004.34,0011.04,0003.44
2022-07-02 19:54:00,,0828.2,5.00,0.00,29.2,28.1,00.0,37.9,31.2,23.0,0000.0,0004.33,0011.34,0003.44
2022-07-02 19:55:00,,0828.3,5.00,0.00,29.2,28.2,00.0,37.9,31.3,23.3,0000.0,0004.30,0011.12,0003.44
2022-07-02 19:56:00,,0828.3,4.99,0.00,29.3,28.1,00.0,37.9,31.3,23.3,0000.0,0004.35,0011.51,0003.45
2022-07-02 19:57:00,,0828.3,5.00,0.00,29.2,27.3,00.0,37.8,31.1,22.6,0000.0,0004.35,0011.72,0003.45
2022-07-02 19:58:00,,0828.3,5.00,0.00,29.2,26.9,00.0,37.8,31.0,22.8,0000.0,0004.33,0011.62,0003.45
2022-07-02 19:59:00,,0828.3,5.00,0.00,29.1,27.0,00.0,37.8,31.0,22.7,0000.0,0004.32,0010.88,0003.45
